Location: *
(48.8780°N, 19.2358°E)
Time: 09:05:29
(UTC+00:00)

STARLINK-71 - Pass Details

Date: 18 October 2019
Orbit: 548 x 551 km, 53.0° (Epoch: 13 November)

Event Time Altitude Azimuth Distance (km) Brightness Sun altitude
Rises 18:05:29 0° 279° (W) 2,718 8.6 -23.2°
Reaches altitude 10° 18:07:48 10° 286° (WNW) 1,825 7.4 -23.6°
Enters shadow 18:11:41 46° 355° (N) 746 4.3 -24.2°
